Location: Allos
(44.2333°N, 6.6333°E)
Time: 09:26:49
(UTC+00:00)

Cosmos 2056 Rocket - Pass Details

Date: 01 December 2020
Orbit: 741 x 801 km, 74.0° (Epoch: 25 January)

Event Time Altitude Azimuth Distance (km) Brightness Sun altitude
Rises 18:03:47 0° 344° (NNW) 3,251 6.8 -22.3°
Reaches altitude 10° 18:06:16 10° 351° (N) 2,330 6.0 -22.7°
Enters shadow 18:09:33 33° 18° (NNE) 1,300 4.4 -23.3°
